Vorticity
10 14 11 6 3 2 2 2 2 2 3 4 5 6 8 6 4 3 4 5 5 5 4 3 3 4 3 4 4 3 3 3 4 3 3 3 4 3 4 5 4 3 3 4 5 3 2 7 6 -2 4 8 1 4 11 12 9 6 11 15 11 10 15 16 14 14 11 15 25 23 11 6 6 7 5 10 11 4 11 11 6 6 3 5 7 9 10 7
4 9 14 12 7 3 2 2 2 2 2 3 4 5 6 8 7 5 4 4 5 5 4 4 4 3 4 4 4 3 3 4 3 4 4 3 3 3 4 4 4 4 3 4 3 3 5 6 5 2 7 10 4 5 7 10 11 8 8 10 12 8 12 16 13 13 13 21 20 3 4 7 8 11 4 11 13 3 11 14 6 5 5 5 6 7 9 8
5 4 8 13 13 8 3 2 2 2 2 2 4 4 5 7 8 8 5 4 5 5 5 4 4 3 4 4 4 4 3 4 4 4 4 3 3 2 4 3 4 4 2 4 3 3 6 5 5 4 9 7 3 7 5 8 9 7 10 10 12 9 8 14 13 12 12 17 7 -3 10 8 4 10 6 13 15 6 10 13 8 4 5 5 4 5 7 9
8 5 4 7 13 14 9 4 2 2 2 2 3 3 5 5 7 9 8 5 4 6 5 4 4 4 3 4 4 3 3 3 2 4 5 4 3 3 3 3 3 3 3 4 4 5 4 4 4 -2 6 6 -1 6 6 8 7 4 11 10 10 9 7 9 9 9 10 15 10 7 11 4 5 10 9 11 9 10 7 6 11 8 6 4 4 4 4 9
8 8 6 3 6 12 15 10 4 2 2 2 2 3 4 4 5 7 9 8 5 5 6 5 5 4 4 4 4 3 3 3 2 5 5 4 4 4 3 3 3 3 3 3 4 8 5 5 5 -10 -7 4 4 6 5 11 12 4 7 9 10 10 9 10 7 8 10 12 12 12 13 9 10 13 11 4 4 11 5 4 13 12 10 7 5 5 5 9
10 9 8 6 4 5 12 15 11 5 2 2 2 2 3 4 5 4 8 9 7 6 5 6 5 4 5 3 5 2 -1 5 5 4 6 4 4 3 3 3 3 3 3 3 3 7 6 7 13 2 -9 -3 4 5 3 11 12 7 6 7 9 10 10 11 8 7 7 8 10 11 14 14 11 11 13 11 13 15 6 6 11 12 13 9 5 6 5 7
13 11 9 8 7 4 6 11 16 11 4 2 2 2 2 3 4 4 6 7 10 9 6 7 5 6 5 3 6 -1 -2 8 6 3 5 4 4 3 4 3 3 3 2 4 3 5 7 5 15 19 4 -3 3 2 3 9 9 9 8 6 8 9 10 9 9 10 5 5 11 11 13 16 10 5 10 11 13 15 10 9 10 10 12 11 10 8 6 5
13 14 12 9 8 7 4 4 12 16 12 5 2 3 2 2 3 4 4 5 9 9 8 7 5 6 4 4 4 -2 3 8 4 4 4 4 5 4 4 4 2 4 2 3 4 2 6 7 10 15 7 5 9 3 3 9 8 8 7 7 9 7 7 6 9 12 7 5 9 12 10 11 9 7 13 8 3 11 11 9 13 12 9 10 12 10 8 6
12 13 14 13 9 8 7 4 5 11 17 12 4 3 3 2 2 4 4 4 6 9 10 8 6 6 4 5 2 -1 6 6 2 4 4 4 6 5 4 4 3 3 3 3 4 2 3 7 8 6 2 6 9 4 6 9 10 13 11 12 11 8 8 6 9 10 9 9 10 14 10 8 10 7 15 11 4 11 7 8 14 9 9 9 7 8 8 6
15 13 13 14 13 9 8 7 4 5 12 16 12 4 3 3 2 3 4 4 5 7 9 8 7 6 4 5 1 0 6 6 3 4 4 4 5 6 4 4 4 2 3 3 3 4 3 4 7 7 3 1 0 0 8 7 0 7 13 12 9 8 8 8 10 10 9 11 13 17 12 9 11 7 10 12 8 10 6 8 12 5 9 11 7 7 8 8
18 18 16 14 14 12 9 8 7 4 5 13 17 11 4 3 3 3 2 4 4 5 8 8 8 6 4 4 1 3 8 6 2 4 4 3 5 7 5 5 5 2 2 4 4 4 3 5 5 7 10 5 0 1 5 6 -7 -3 12 10 8 12 12 11 12 12 10 10 12 12 9 7 11 8 7 11 9 9 8 7 9 8 9 12 12 12 12 12
14 18 20 17 14 13 12 9 7 7 4 6 14 17 11 4 4 4 2 3 3 4 5 6 7 6 4 3 2 3 6 6 4 5 3 3 7 5 7 7 4 4 3 3 4 4 3 4 3 4 10 6 7 7 -0 6 -4 -9 7 4 5 14 11 8 6 7 7 9 12 8 6 5 9 11 6 11 10 6 11 9 7 11 11 13 17 16 14 13
10 12 18 22 18 14 13 11 8 7 6 4 6 15 18 9 4 4 4 2 2 4 4 5 6 5 4 2 4 4 3 4 1 3 3 4 7 5 8 7 5 5 3 3 4 5 3 4 4 2 7 5 13 11 -8 9 7 -11 2 2 7 11 -2 4 6 5 8 11 16 11 10 7 6 9 6 13 12 6 13 10 7 12 10 8 10 12 12 13
9 9 13 20 23 18 14 13 11 8 7 6 4 7 16 17 9 4 5 3 1 3 3 5 4 4 5 1 6 6 0 2 1 2 3 4 7 6 7 5 7 4 2 6 3 6 4 2 6 2 8 7 9 6 -20 -1 14 -2 4 4 11 9 -6 8 9 5 12 11 14 10 9 10 8 9 7 11 9 5 11 8 8 12 8 7 7 8 10 13
8 9 10 15 22 23 18 15 13 10 7 7 5 4 9 17 16 8 4 5 3 1 2 5 4 4 4 -0 3 5 1 3 1 1 2 5 7 6 7 6 7 5 4 5 2 7 4 3 7 1 8 4 4 7 -20 -6 16 7 11 7 9 8 1 13 3 2 15 10 12 10 6 7 7 9 8 11 8 5 9 7 9 9 7 10 9 7 8 11
7 7 9 12 18 22 21 18 15 13 9 7 7 5 4 10 18 16 7 5 4 3 1 3 4 4 3 2 2 2 3 3 -1 1 4 5 6 6 10 9 7 6 4 4 5 6 4 4 4 3 12 5 7 5 -21 -0 22 10 8 -1 0 4 3 13 2 0 15 12 8 5 7 7 6 10 8 8 9 6 7 7 8 8 7 8 8 8 5 7
7 7 9 11 15 20 22 21 17 15 12 9 8 6 5 4 11 19 15 8 5 5 3 1 4 4 3 4 7 6 2 2 0 2 4 3 7 9 9 7 6 7 5 5 5 5 6 5 2 7 7 -4 3 -0 -16 3 17 11 7 -6 1 7 4 13 5 -2 11 17 9 1 8 10 5 10 8 6 8 7 7 7 7 6 7 6 8 10 6 4
7 6 8 10 14 18 20 21 20 18 15 12 9 7 7 5 5 12 18 15 7 5 5 2 2 3 3 -1 3 5 -1 2 3 0 5 6 6 6 4 7 8 7 5 5 4 6 7 3 4 8 -0 -6 1 2 -2 -0 2 8 4 -6 3 8 6 12 5 1 9 15 13 11 13 10 8 8 8 8 7 7 7 8 7 4 6 6 7 10 8 8
9 8 7 7 12 16 18 20 20 20 17 15 12 8 7 6 5 6 13 19 14 8 5 4 2 0 3 -2 -2 2 1 7 5 2 8 6 2 3 5 10 9 7 7 6 4 6 5 3 5 1 -1 5 6 9 7 -2 3 5 -4 -4 5 16 19 7 2 8 6 6 13 19 11 3 7 7 6 10 7 6 8 8 8 4 5 7 4 7 9 11
13 11 8 6 9 13 16 19 21 20 19 17 13 11 8 6 7 5 7 14 18 15 6 6 7 2 2 3 -0 0 4 6 1 -0 4 3 2 4 7 7 4 6 8 8 6 5 6 5 4 -2 -3 -3 -4 11 11 4 13 8 6 7 -3 12 13 -14 -5 12 1 1 11 19 18 10 8 6 6 11 5 4 9 9 9 8 10 10 5 6 8 9
13 13 12 9 8 11 14 16 21 21 19 18 16 13 10 8 7 6 6 7 14 20 13 7 7 5 3 3 0 1 6 4 -1 -1 -0 2 3 3 7 5 5 8 7 8 5 5 8 4 5 4 2 -1 2 19 17 12 13 3 12 7 -13 7 8 -14 5 17 4 3 7 12 18 12 7 7 7 9 5 4 11 9 7 11 13 11 7 9 9 6
11 13 13 12 12 13 13 13 18 20 19 18 17 15 13 10 7 6 7 6 8 16 18 14 9 7 5 3 4 5 8 6 4 4 1 2 3 4 7 4 6 8 4 5 -1 5 13 8 7 -1 -3 4 6 17 12 -0 -2 -4 5 2 -1 18 15 5 10 7 -1 -4 1 7 8 7 10 12 6 8 12 9 12 10 5 10 9 6 7 7 8 8
10 12 11 12 16 17 14 12 14 18 20 19 17 16 14 12 9 7 7 6 7 9 15 19 15 11 8 5 4 1 3 4 5 6 3 4 4 4 6 2 7 6 5 6 -2 5 8 -2 0 -8 2 18 7 9 10 -4 -6 2 14 10 4 7 7 8 0 -1 9 4 4 9 10 15 16 12 4 6 15 11 11 10 6 9 7 7 10 8 7 8
9 10 9 10 13 16 15 13 13 16 18 19 18 17 15 14 12 9 7 5 5 6 7 13 16 18 15 9 6 4 3 0 1 3 2 5 4 3 4 2 6 4 3 7 2 7 1 -7 1 -9 -1 23 15 5 -1 -2 3 7 22 20 2 -1 8 16 2 -5 10 12 13 8 7 14 11 13 13 5 6 6 9 9 6 11 9 8 10 10 10 8
7 9 8 8 9 12 13 12 14 15 17 19 18 18 16 15 15 13 11 8 4 3 3 5 8 15 19 18 15 10 8 4 4 4 1 5 3 -0 5 3 4 5 6 9 2 1 2 -1 6 -1 -1 15 14 -0 -13 -0 14 5 7 9 5 8 9 12 4 -8 -3 6 14 7 -0 5 5 14 16 5 5 7 10 10 9 12 8 7 8 7 8 8
5 8 8 8 9 9 9 10 13 14 17 18 17 19 17 16 17 14 13 12 10 5 2 3 3 5 12 19 18 10 9 9 7 6 1 3 0 -2 5 2 2 7 3 6 4 3 8 2 -2 5 16 19 7 -3 0 14 12 -5 -6 -3 2 11 8 6 1 -7 -6 0 11 9 4 9 7 5 7 8 13 13 7 6 11 12 9 9 9 9 10 9
4 6 7 8 9 9 8 8 10 13 17 18 17 18 17 18 18 16 17 17 21 18 9 8 6 5 5 9 17 14 9 7 5 6 6 8 7 3 5 1 5 9 -6 -6 9 11 9 1 -4 7 15 14 8 -2 -1 14 11 -7 -0 13 14 12 11 9 6 1 0 4 8 1 2 11 4 -2 6 8 11 12 5 6 12 11 10 11 8 10 11 10
6 6 6 7 8 9 9 7 8 10 13 15 17 16 17 18 18 19 16 9 15 19 13 14 10 9 7 2 11 16 10 10 8 7 8 10 10 6 5 4 5 7 -6 -4 11 12 10 1 -4 14 18 8 14 4 -14 9 23 -2 -4 18 19 12 6 5 12 11 7 11 5 -5 9 17 2 6 16 7 5 10 7 11 14 10 9 9 9 10 8 8
10 7 6 7 7 8 9 8 8 8 11 14 13 16 17 18 18 20 16 6 10 13 10 16 15 11 12 5 5 10 10 15 13 10 8 4 3 2 5 5 2 2 1 5 6 1 13 11 -7 7 20 6 6 -2 -15 16 30 -2 0 15 4 3 8 8 14 9 2 4 1 7 25 19 2 11 15 -1 4 10 7 13 13 9 12 8 7 8 5 6
14 10 8 9 8 9 10 9 9 8 12 13 11 15 16 17 21 17 12 9 12 16 12 11 15 15 13 11 7 4 7 13 13 14 14 7 2 2 3 2 0 2 3 9 9 -5 -3 10 4 -2 -2 -4 -2 -9 -5 35 32 -10 -7 7 -2 1 6 1 -3 -3 4 5 7 15 14 7 3 3 2 -0 9 10 4 11 9 8 15 9 6 8 5 4
17 14 12 12 10 11 11 10 12 11 12 14 12 14 12 17 22 4 -1 11 7 10 17 9 12 18 13 13 12 7 8 9 9 16 20 16 8 5 7 5 1 3 4 8 11 -0 -15 -3 16 12 -1 -1 2 -10 -5 27 25 -9 -15 -6 -0 4 6 6 -5 -1 16 6 9 21 5 5 7 -7 -2 7 8 9 4 4 6 8 13 8 7 10 5 3
17 14 12 12 11 12 12 12 15 14 14 15 11 12 11 14 17 -5 -4 29 22 13 30 21 9 16 16 13 13 10 10 8 6 11 18 20 13 9 10 9 4 4 8 9 6 5 -2 -3 9 15 12 12 9 2 6 16 15 13 9 -5 -1 6 6 18 10 10 27 10 13 36 11 -4 -2 -9 5 9 1 7 4 1 4 6 11 11 16 20 13 11
12 12 10 12 13 14 17 15 16 16 14 14 9 10 11 5 11 4 -5 16 14 -1 22 31 15 15 18 16 16 13 10 12 10 6 14 18 12 11 13 11 10 6 6 8 5 12 17 8 5 11 14 13 9 6 7 6 -1 8 14 -3 2 7 -6 8 11 -1 11 6 13 35 7 -14 -4 -2 5 7 5 8 1 3 9 5 9 12 17 22 14 9
9 11 10 13 15 16 19 16 15 15 10 12 9 8 11 -2 3 18 -1 -2 12 -1 4 25 20 14 17 17 20 20 11 11 12 6 9 15 9 9 12 9 11 9 6 4 -1 8 16 7 4 9 11 10 11 8 1 -1 -4 0 10 6 9 8 -5 6 8 -8 5 11 13 26 7 -10 -1 -0 0 2 4 8 4 6 10 8 8 5 6 16 11 4
9 11 10 12 14 14 17 15 13 13 8 11 10 7 12 2 6 27 6 -3 29 25 8 19 19 12 18 15 11 18 17 16 21 13 7 13 11 9 12 11 11 9 8 7 1 3 8 10 12 6 4 9 9 11 9 1 3 5 5 6 8 8 11 13 1 -2 13 7 4 18 6 -8 -2 4 17 19 8 7 6 2 5 8 8 3 5 16 14 6
9 11 12 11 13 13 13 14 12 12 9 9 12 7 3 -3 1 15 9 3 17 16 11 20 22 19 20 13 3 6 14 15 16 14 12 15 9 7 12 15 18 14 7 6 5 5 3 8 18 7 6 23 14 9 16 2 -1 6 1 9 14 2 10 17 2 5 12 3 12 25 14 12 15 12 16 14 6 7 7 4 4 6 8 9 12 17 13 7
9 11 12 11 13 12 11 13 11 11 10 7 12 7 -5 -3 0 1 12 13 -2 5 19 13 12 19 14 16 17 10 13 13 6 7 15 17 8 5 8 8 14 18 12 3 -4 10 15 5 17 17 5 20 17 7 19 10 -2 -3 -10 13 31 5 -3 9 4 6 8 8 15 6 -0 15 13 2 6 -0 -2 8 8 5 6 9 15 15 14 17 14 9
9 10 12 11 12 11 11 12 7 9 11 7 10 6 -5 4 16 8 10 10 -3 14 25 -4 -2 17 2 5 20 14 20 23 13 13 16 16 15 14 8 2 6 14 18 6 -15 3 20 -6 -0 24 8 7 15 4 11 16 9 -4 -24 -8 19 6 -2 9 13 13 3 -2 7 -5 -8 10 2 -3 15 12 6 11 4 -1 6 13 19 16 11 15 13 9
9 10 12 13 11 10 11 9 6 9 12 9 9 10 2 4 18 16 7 11 11 18 14 -10 6 34 16 9 14 10 22 21 8 20 23 16 21 24 20 13 11 15 22 17 -8 -6 12 -11 -18 14 18 12 21 14 8 11 10 4 -11 -13 1 5 4 3 7 17 7 -0 14 3 -14 3 15 13 18 16 10 12 3 -4 3 10 13 12 9 10 11 10
8 10 11 14 12 9 10 7 8 11 12 11 4 4 7 5 16 19 8 12 12 3 1 -9 0 24 22 16 9 2 19 16 1 19 26 9 8 15 18 14 9 14 20 23 10 -8 -1 -1 -12 2 16 12 18 22 14 10 8 10 10 1 -2 8 5 -5 0 10 8 2 6 5 1 16 29 18 10 8 5 7 5 -2 -2 5 9 7 5 8 10 10
8 8 8 12 11 9 9 7 11 14 9 9 5 5 12 9 12 16 10 18 12 -4 5 6 3 9 4 10 14 5 19 22 4 11 13 -3 4 16 14 7 7 12 13 20 23 -0 -8 3 -8 -7 11 11 14 23 17 15 13 5 8 2 -6 2 1 -2 4 -1 -3 3 2 6 18 18 7 -4 2 15 8 1 6 3 -3 3 11 8 3 7 9 8
9 9 6 10 9 8 9 8 13 13 5 7 10 12 13 10 13 14 11 20 16 10 22 22 15 9 -3 7 15 3 17 28 11 7 3 -5 10 22 17 15 20 19 10 12 20 9 3 10 -6 -18 -1 5 9 21 20 22 21 2 1 7 1 7 8 2 6 -1 -1 15 11 3 8 3 -9 -11 5 17 2 -8 2 2 -2 12 22 12 4 8 8 7
10 9 5 7 7 7 8 9 12 8 3 7 11 10 10 12 13 8 9 13 9 15 18 4 0 3 4 11 6 2 21 27 17 13 9 10 14 6 1 8 17 21 17 14 17 10 6 16 5 -18 -11 1 2 12 17 19 24 10 -0 5 3 7 13 10 9 3 -1 12 13 4 7 13 11 9 16 13 -8 -8 5 -0 1 21 24 7 3 12 9 6
10 8 6 6 5 7 5 7 12 10 8 9 6 7 11 15 9 -0 9 10 4 13 7 -4 8 14 19 19 1 9 29 19 13 10 3 16 14 -2 1 5 4 14 25 26 25 20 12 16 14 -9 -15 -4 -7 1 18 16 18 17 3 -1 1 3 7 10 13 10 3 9 11 -2 -3 6 6 2 5 7 5 10 8 -1 7 19 15 5 4 9 9 6
8 7 9 5 3 7 4 4 9 13 17 13 7 9 9 13 9 -0 9 9 5 15 7 9 22 8 19 30 -3 -2 20 9 10 5 -5 15 13 1 18 28 20 15 19 27 23 20 20 16 20 11 -8 -5 0 9 27 20 10 20 16 -3 -8 2 7 1 4 11 3 -4 -3 -2 4 7 2 4 5 6 17 19 1 -2 13 14 8 8 3 4 10 9
6 5 9 7 4 7 3 4 7 5 11 11 11 17 12 15 15 2 9 14 5 5 2 14 19 -6 17 42 4 -1 15 0 7 6 -6 12 11 -2 8 24 34 17 2 14 3 -6 11 7 13 22 -2 -7 12 13 12 9 -3 5 21 16 -1 1 9 -2 -6 5 4 -2 -1 2 6 1 -1 12 14 3 3 7 -0 -2 9 13 12 8 3 5 9 7
6 5 10 8 7 8 2 4 7 1 5 8 12 16 3 10 25 10 6 14 6 -0 -2 8 10 -4 16 27 2 14 19 -6 7 11 -6 3 7 7 13 16 27 17 3 15 -1 -16 10 8 3 22 6 -9 4 -3 -13 -1 -1 -6 11 28 16 3 10 7 -0 3 5 8 13 12 13 12 6 3 4 10 11 7 4 -4 -6 8 15 7 5 7 5 8
7 4 9 8 8 11 3 3 9 6 6 4 11 17 -1 -2 20 12 1 6 9 12 8 4 5 5 22 21 3 19 20 2 11 5 -6 5 -1 6 31 26 18 17 11 19 8 -5 15 16 7 20 22 14 9 -7 -14 5 21 15 8 9 5 4 11 9 7 14 13 7 5 5 5 6 9 8 7 15 15 4 3 0 -4 6 11 7 9 9 8 16
6 3 8 7 7 11 6 5 11 9 6 2 6 19 9 -4 3 8 8 5 5 16 17 8 -1 -9 6 24 20 19 18 14 14 0 3 17 -7 -11 18 15 9 22 18 12 13 10 12 14 11 9 12 24 19 -3 -11 1 13 19 17 9 2 5 8 4 9 20 22 16 6 1 2 0 8 21 15 4 0 -2 0 4 4 6 6 7 11 10 13 19
7 5 7 5 5 7 6 9 12 7 8 6 2 9 10 2 1 8 15 5 -6 8 18 12 -1 -17 -13 12 19 15 14 12 10 7 16 19 -2 -4 12 4 4 27 31 16 13 17 14 12 17 8 -2 14 25 11 2 -1 -9 -5 9 12 6 7 12 11 8 -2 -2 12 13 7 14 9 1 13 20 12 5 1 -0 4 6 5 4 8 11 10 13 15
8 7 6 5 5 5 5 9 10 7 10 8 3 5 8 8 8 8 10 4 -4 4 10 4 2 -1 -4 1 3 4 8 9 9 12 18 14 2 5 14 5 -4 9 27 27 16 17 21 17 18 12 -3 3 23 26 19 11 -0 -4 4 7 6 11 17 19 12 -9 -16 7 19 13 12 2 -11 3 20 18 8 3 3 6 4 1 5 13 12 9 13 15
9 9 7 6 6 4 3 6 5 5 9 8 5 7 5 6 12 11 6 6 4 7 9 3 2 6 4 2 8 11 7 9 17 17 15 15 11 7 10 13 5 -2 11 26 20 14 20 16 11 12 7 3 11 16 14 14 11 6 5 7 4 3 7 14 17 4 -2 12 16 8 8 4 -5 -1 3 1 2 6 3 2 5 4 7 15 15 11 14 16
Height
5900 5901 5902 5903 5904 5905 5906 5906 5907 5908 5909 5910 5910 5911 5912 5913 5913 5914 5915 5915 5915 5916 5916 5916 5917 5917 5917 5917 5917 5918 5918 5918 5918 5918 5918 5918 5918 5918 5918 5917 5917 5917 5916 5916 5915 5915 5915 5915 5913 5910 5911 5911 5909 5908 5908 5907 5907 5905 5904 5903 5902 5900 5900 5899 5898 5897 5897 5897 5896 5896 5898 5899 5900 5900 5901 5902 5902 5903 5903 5904 5904 5905 5905 5906 5906 5907 5907 5907
5899 5900 5900 5901 5902 5903 5904 5905 5906 5907 5908 5909 5910 5910 5911 5912 5913 5913 5914 5915 5915 5916 5916 5916 5917 5917 5917 5918 5918 5918 5918 5918 5918 5918 5919 5919 5919 5919 5919 5918 5918 5918 5918 5917 5917 5916 5916 5915 5913 5912 5913 5912 5910 5912 5911 5909 5909 5908 5906 5905 5903 5901 5901 5900 5898 5898 5898 5898 5897 5897 5898 5899 5900 5901 5902 5902 5902 5902 5903 5904 5904 5904 5905 5906 5906 5907 5907 5907
5897 5898 5899 5900 5900 5901 5902 5903 5904 5906 5907 5908 5909 5910 5910 5911 5912 5913 5914 5914 5915 5915 5916 5916 5917 5917 5918 5918 5918 5918 5918 5919 5919 5919 5919 5920 5920 5920 5920 5919 5919 5919 5919 5918 5918 5918 5917 5916 5914 5914 5915 5913 5913 5914 5912 5911 5911 5910 5908 5906 5905 5903 5902 5902 5900 5899 5899 5899 5899 5899 5899 5900 5901 5901 5902 5902 5902 5903 5903 5903 5904 5905 5905 5906 5907 5907 5907 5907
5895 5896 5897 5898 5899 5900 5901 5902 5903 5904 5905 5906 5908 5909 5909 5910 5911 5912 5913 5914 5915 5915 5915 5916 5917 5917 5918 5918 5918 5918 5919 5919 5919 5919 5920 5920 5920 5920 5920 5920 5920 5920 5920 5919 5919 5919 5918 5916 5916 5915 5915 5914 5915 5915 5914 5913 5911 5911 5910 5907 5907 5905 5904 5903 5902 5900 5900 5900 5900 5899 5900 5901 5902 5902 5902 5902 5903 5903 5904 5905 5905 5905 5905 5906 5907 5907 5908 5908
5893 5894 5895 5896 5897 5898 5899 5900 5901 5902 5904 5905 5906 5907 5908 5909 5910 5911 5912 5913 5914 5915 5915 5916 5916 5917 5918 5918 5918 5919 5919 5919 5919 5920 5920 5920 5921 5921 5921 5921 5920 5920 5920 5920 5920 5920 5919 5917 5916 5916 5916 5916 5917 5917 5915 5915 5913 5912 5911 5908 5908 5906 5905 5905 5904 5902 5902 5902 5901 5900 5901 5902 5903 5903 5903 5903 5903 5904 5905 5906 5906 5906 5906 5906 5907 5907 5908 5908
5890 5891 5893 5894 5895 5896 5897 5898 5899 5901 5902 5903 5905 5906 5907 5908 5909 5910 5911 5912 5913 5914 5914 5915 5916 5917 5917 5918 5918 5919 5919 5920 5920 5920 5920 5920 5921 5921 5921 5921 5921 5921 5921 5921 5921 5921 5920 5918 5917 5918 5919 5919 5920 5919 5918 5916 5915 5913 5911 5910 5908 5907 5906 5906 5905 5903 5904 5904 5902 5902 5903 5903 5903 5903 5903 5904 5904 5905 5906 5906 5906 5906 5907 5906 5907 5907 5908 5908
5888 5889 5890 5891 5893 5894 5895 5896 5897 5899 5900 5901 5903 5904 5906 5907 5908 5909 5910 5911 5912 5913 5914 5914 5915 5916 5917 5918 5918 5919 5919 5919 5920 5921 5921 5921 5921 5922 5922 5922 5922 5922 5922 5922 5921 5921 5921 5919 5919 5920 5921 5922 5922 5920 5919 5919 5917 5915 5913 5912 5910 5909 5907 5907 5907 5905 5905 5906 5905 5905 5904 5903 5903 5903 5903 5904 5904 5906 5906 5906 5907 5907 5907 5907 5907 5908 5908 5907
5885 5886 5887 5889 5890 5891 5893 5894 5895 5896 5898 5900 5901 5902 5904 5905 5907 5908 5909 5910 5911 5912 5913 5914 5915 5916 5916 5917 5918 5918 5919 5919 5920 5920 5921 5921 5921 5922 5922 5922 5922 5922 5922 5922 5922 5922 5921 5920 5920 5921 5921 5922 5923 5921 5921 5920 5919 5917 5916 5915 5913 5911 5909 5908 5909 5908 5907 5907 5908 5907 5905 5904 5905 5904 5904 5905 5905 5906 5907 5907 5907 5907 5907 5907 5908 5908 5908 5908
5883 5884 5885 5886 5887 5889 5890 5892 5893 5894 5896 5897 5899 5900 5902 5904 5905 5906 5908 5909 5910 5911 5913 5913 5914 5915 5916 5917 5918 5918 5919 5919 5919 5920 5921 5921 5921 5922 5922 5923 5923 5923 5923 5923 5923 5922 5922 5922 5922 5922 5921 5922 5923 5923 5923 5921 5920 5919 5918 5917 5915 5914 5912 5909 5909 5908 5907 5907 5908 5907 5906 5906 5906 5905 5905 5906 5906 5906 5907 5907 5907 5907 5907 5907 5907 5908 5908 5907
5881 5881 5882 5883 5884 5886 5887 5889 5891 5892 5894 5895 5897 5898 5900 5902 5903 5905 5906 5908 5909 5910 5912 5913 5913 5914 5915 5916 5917 5918 5918 5919 5920 5920 5921 5921 5922 5922 5923 5923 5923 5923 5924 5924 5924 5923 5923 5923 5923 5923 5922 5922 5923 5924 5924 5922 5922 5921 5920 5918 5917 5917 5915 5913 5911 5911 5909 5908 5909 5909 5908 5908 5907 5906 5906 5907 5907 5907 5907 5907 5906 5906 5907 5907 5906 5906 5907 5907
5879 5879 5880 5881 5882 5883 5885 5886 5888 5890 5892 5893 5895 5896 5898 5900 5902 5903 5905 5906 5908 5909 5910 5912 5913 5914 5915 5916 5916 5918 5919 5919 5920 5920 5921 5921 5922 5922 5923 5923 5924 5924 5924 5924 5924 5924 5924 5924 5924 5924 5923 5923 5923 5925 5925 5923 5923 5923 5921 5920 5919 5919 5918 5915 5914 5913 5911 5910 5910 5910 5910 5909 5908 5907 5906 5907 5907 5907 5908 5907 5906 5906 5906 5906 5906 5906 5907 5907
5877 5877 5877 5878 5879 5880 5882 5884 5885 5887 5889 5891 5892 5894 5896 5898 5900 5901 5903 5905 5906 5908 5909 5911 5912 5913 5914 5915 5916 5918 5919 5920 5920 5921 5921 5921 5922 5923 5923 5923 5924 5924 5925 5925 5925 5925 5925 5925 5925 5925 5924 5924 5925 5926 5926 5923 5922 5923 5921 5920 5921 5920 5919 5917 5916 5915 5914 5913 5912 5911 5910 5909 5909 5908 5907 5906 5906 5907 5909 5908 5907 5906 5906 5905 5906 5906 5906 5906
5876 5876 5876 5876 5876 5878 5879 5881 5883 5885 5887 5889 5890 5892 5893 5895 5897 5899 5901 5903 5904 5906 5908 5909 5911 5912 5913 5914 5915 5917 5918 5919 5920 5920 5921 5921 5922 5923 5923 5923 5924 5924 5925 5925 5926 5926 5926 5926 5926 5926 5926 5926 5925 5927 5928 5926 5925 5924 5921 5920 5921 5920 5920 5919 5918 5918 5917 5915 5913 5912 5912 5911 5910 5909 5908 5907 5906 5907 5908 5908 5907 5907 5907 5906 5906 5905 5905 5905
5875 5874 5874 5874 5874 5875 5876 5878 5880 5882 5884 5886 5888 5890 5891 5893 5895 5897 5899 5901 5903 5904 5906 5908 5910 5911 5912 5913 5915 5916 5917 5918 5919 5920 5921 5921 5922 5922 5923 5923 5924 5924 5925 5925 5926 5926 5927 5927 5927 5927 5927 5927 5926 5926 5928 5928 5927 5925 5923 5921 5920 5919 5920 5921 5920 5919 5918 5916 5915 5914 5913 5911 5911 5910 5909 5907 5906 5905 5906 5905 5906 5907 5908 5906 5905 5905 5904 5904
5873 5873 5873 5873 5872 5873 5874 5875 5877 5879 5881 5883 5886 5887 5889 5890 5892 5894 5897 5899 5901 5903 5904 5906 5908 5910 5911 5913 5914 5915 5916 5917 5918 5919 5920 5921 5921 5922 5923 5923 5924 5924 5925 5925 5926 5927 5927 5927 5928 5928 5928 5928 5927 5926 5926 5926 5926 5926 5924 5922 5922 5921 5921 5921 5921 5920 5919 5918 5916 5914 5913 5911 5911 5910 5910 5909 5907 5906 5906 5905 5904 5905 5906 5905 5905 5904 5904 5903
5872 5872 5871 5871 5871 5871 5871 5873 5874 5877 5878 5881 5883 5885 5886 5888 5890 5892 5894 5897 5899 5901 5903 5904 5906 5908 5910 5912 5913 5914 5915 5917 5918 5919 5920 5920 5921 5922 5923 5923 5924 5924 5925 5925 5926 5927 5927 5928 5928 5929 5929 5929 5928 5928 5927 5926 5926 5926 5926 5924 5924 5924 5922 5921 5920 5919 5919 5920 5918 5915 5914 5912 5911 5910 5910 5910 5909 5907 5907 5906 5906 5904 5903 5904 5904 5903 5902 5902
5871 5870 5870 5870 5869 5869 5869 5870 5872 5874 5876 5878 5880 5882 5884 5886 5888 5890 5892 5894 5897 5899 5901 5902 5904 5906 5909 5912 5912 5912 5914 5915 5917 5919 5919 5920 5921 5921 5922 5923 5923 5924 5925 5925 5926 5927 5928 5928 5929 5930 5930 5930 5929 5931 5931 5929 5927 5926 5927 5926 5925 5925 5924 5921 5919 5918 5920 5920 5919 5916 5914 5913 5912 5911 5910 5910 5909 5908 5907 5906 5906 5905 5904 5904 5903 5902 5902 5902
5869 5869 5869 5869 5868 5867 5867 5868 5870 5871 5873 5875 5878 5880 5882 5884 5886 5888 5890 5892 5894 5897 5898 5900 5902 5905 5907 5908 5909 5909 5912 5915 5917 5918 5919 5919 5920 5921 5922 5922 5923 5924 5924 5925 5926 5927 5928 5929 5929 5930 5931 5930 5931 5933 5933 5932 5930 5927 5926 5927 5927 5925 5925 5923 5920 5920 5921 5920 5919 5917 5916 5915 5913 5912 5911 5909 5908 5908 5907 5907 5906 5904 5905 5904 5903 5903 5903 5902
5868 5868 5868 5867 5867 5866 5866 5866 5868 5869 5871 5873 5875 5877 5880 5882 5884 5886 5888 5889 5892 5894 5895 5897 5900 5901 5902 5904 5906 5908 5912 5915 5916 5917 5918 5919 5919 5920 5921 5922 5923 5923 5924 5925 5926 5927 5928 5928 5929 5930 5931 5932 5933 5934 5934 5934 5933 5931 5928 5928 5929 5927 5926 5924 5921 5919 5920 5920 5921 5919 5917 5916 5914 5912 5911 5911 5910 5908 5908 5908 5907 5906 5905 5905 5903 5903 5904 5903
5867 5867 5867 5866 5866 5866 5865 5865 5866 5867 5869 5870 5873 5875 5877 5879 5881 5884 5886 5887 5889 5890 5893 5897 5898 5899 5901 5904 5906 5908 5912 5913 5914 5915 5917 5918 5919 5919 5921 5921 5922 5923 5924 5925 5925 5926 5927 5928 5929 5930 5932 5934 5934 5934 5934 5934 5934 5934 5933 5930 5929 5928 5926 5925 5922 5919 5918 5920 5922 5921 5918 5917 5915 5913 5913 5913 5912 5910 5910 5910 5909 5908 5908 5907 5906 5905 5905 5905
5866 5865 5865 5865 5865 5865 5865 5864 5865 5866 5867 5868 5871 5873 5875 5877 5879 5882 5884 5885 5887 5888 5892 5894 5895 5897 5900 5902 5905 5909 5912 5911 5912 5914 5916 5917 5918 5919 5920 5921 5922 5923 5924 5925 5925 5925 5926 5927 5929 5930 5932 5934 5934 5933 5933 5934 5934 5935 5936 5933 5930 5930 5927 5925 5924 5920 5920 5921 5921 5920 5919 5917 5915 5913 5914 5914 5913 5912 5912 5911 5910 5910 5910 5909 5908 5907 5907 5906
5865 5864 5864 5863 5864 5864 5864 5864 5864 5865 5865 5867 5869 5871 5873 5875 5878 5880 5882 5884 5885 5887 5890 5891 5893 5895 5897 5901 5906 5909 5909 5909 5911 5913 5915 5916 5917 5918 5919 5920 5921 5922 5923 5924 5925 5925 5926 5928 5929 5929 5932 5933 5933 5933 5933 5934 5934 5935 5937 5935 5932 5930 5928 5927 5925 5922 5922 5922 5921 5920 5920 5919 5916 5915 5915 5916 5915 5915 5914 5911 5909 5910 5910 5909 5908 5908 5907 5906
5864 5863 5863 5862 5863 5863 5863 5863 5863 5864 5864 5865 5867 5869 5871 5873 5876 5878 5880 5882 5884 5886 5888 5889 5891 5893 5896 5900 5903 5904 5905 5907 5910 5912 5913 5915 5917 5917 5918 5919 5920 5921 5922 5923 5924 5925 5926 5929 5930 5930 5932 5932 5931 5932 5933 5934 5935 5936 5938 5937 5934 5931 5930 5929 5926 5923 5924 5924 5923 5922 5921 5919 5917 5916 5916 5915 5916 5915 5914 5912 5910 5910 5910 5909 5908 5907 5906 5905
5863 5863 5862 5862 5862 5862 5862 5862 5862 5863 5863 5864 5866 5867 5869 5872 5874 5876 5878 5880 5882 5884 5886 5888 5890 5892 5894 5897 5900 5901 5903 5905 5908 5909 5912 5914 5915 5916 5917 5918 5919 5921 5922 5923 5924 5925 5926 5929 5931 5930 5930 5930 5931 5932 5933 5935 5936 5938 5939 5937 5934 5932 5932 5931 5926 5924 5926 5926 5924 5923 5921 5919 5918 5918 5917 5915 5916 5915 5913 5913 5912 5910 5910 5909 5908 5908 5906 5905
5862 5862 5862 5861 5862 5862 5862 5862 5862 5862 5863 5864 5865 5866 5868 5870 5872 5875 5877 5879 5881 5883 5885 5887 5888 5890 5892 5896 5899 5900 5901 5903 5906 5908 5910 5913 5913 5914 5916 5917 5919 5920 5921 5923 5923 5924 5926 5927 5929 5930 5929 5929 5930 5931 5933 5935 5937 5937 5937 5936 5936 5933 5932 5931 5927 5924 5925 5925 5924 5923 5921 5920 5918 5918 5919 5917 5917 5916 5915 5914 5913 5912 5911 5910 5909 5908 5906 5904
5861 5861 5861 5861 5861 5861 5861 5861 5862 5862 5863 5863 5864 5866 5867 5869 5871 5874 5876 5878 5879 5881 5883 5885 5887 5888 5891 5894 5896 5897 5898 5901 5904 5905 5908 5910 5911 5913 5915 5916 5918 5919 5920 5922 5923 5924 5925 5926 5928 5929 5928 5928 5929 5930 5933 5934 5936 5938 5936 5934 5936 5935 5932 5932 5929 5926 5925 5926 5925 5923 5922 5920 5918 5918 5919 5919 5918 5918 5917 5916 5916 5914 5912 5911 5909 5908 5906 5904
5860 5860 5860 5860 5861 5861 5861 5861 5862 5862 5862 5863 5864 5865 5866 5868 5870 5873 5875 5877 5878 5880 5882 5883 5885 5887 5890 5891 5893 5894 5896 5898 5901 5901 5906 5910 5911 5912 5913 5914 5916 5918 5919 5920 5921 5922 5924 5925 5927 5927 5926 5928 5928 5929 5933 5933 5934 5938 5935 5932 5934 5935 5934 5932 5929 5927 5925 5925 5925 5924 5923 5921 5919 5917 5917 5918 5918 5918 5918 5917 5916 5914 5912 5911 5910 5908 5907 5906
5859 5859 5860 5860 5860 5861 5861 5861 5862 5862 5862 5863 5864 5865 5866 5867 5870 5872 5874 5875 5876 5878 5880 5881 5883 5885 5887 5889 5891 5893 5893 5896 5898 5900 5905 5909 5908 5909 5912 5913 5915 5916 5917 5918 5920 5922 5923 5925 5926 5926 5926 5927 5928 5929 5932 5934 5934 5935 5933 5930 5932 5934 5934 5932 5929 5925 5923 5925 5925 5924 5923 5921 5919 5918 5918 5918 5917 5917 5917 5916 5916 5914 5913 5912 5910 5909 5908 5907
5858 5859 5859 5859 5860 5860 5860 5861 5861 5862 5862 5863 5864 5865 5866 5867 5869 5871 5873 5874 5875 5876 5878 5880 5881 5883 5886 5888 5890 5890 5891 5895 5897 5898 5902 5904 5904 5906 5910 5911 5913 5914 5915 5917 5919 5921 5923 5924 5924 5924 5925 5927 5929 5930 5932 5932 5931 5931 5930 5930 5932 5934 5934 5933 5929 5924 5923 5925 5925 5924 5923 5921 5919 5918 5918 5919 5919 5918 5916 5915 5915 5914 5913 5912 5911 5909 5908 5906
5857 5858 5858 5858 5859 5859 5860 5860 5861 5862 5862 5863 5864 5865 5866 5867 5869 5870 5872 5874 5875 5876 5877 5878 5879 5881 5884 5886 5888 5888 5891 5894 5894 5895 5900 5902 5902 5905 5907 5909 5911 5913 5914 5916 5918 5920 5921 5921 5922 5923 5924 5925 5928 5929 5929 5928 5928 5928 5928 5930 5933 5934 5933 5932 5929 5926 5924 5925 5926 5925 5922 5921 5920 5919 5918 5918 5919 5919 5917 5916 5915 5913 5913 5912 5911 5910 5909 5908
5856 5857 5857 5858 5858 5859 5859 5860 5860 5861 5862 5863 5864 5864 5866 5867 5868 5870 5872 5873 5874 5875 5876 5876 5878 5880 5882 5884 5886 5887 5891 5892 5892 5895 5899 5901 5901 5903 5906 5908 5910 5912 5913 5915 5917 5918 5919 5921 5922 5922 5923 5924 5925 5925 5925 5926 5927 5928 5929 5930 5933 5933 5932 5931 5929 5928 5928 5927 5927 5925 5921 5921 5921 5920 5920 5919 5918 5918 5916 5916 5915 5913 5913 5912 5912 5913 5912 5910
5855 5856 5857 5857 5858 5858 5859 5859 5860 5861 5861 5862 5863 5865 5866 5867 5869 5871 5872 5873 5874 5875 5874 5875 5877 5879 5881 5883 5884 5887 5889 5890 5891 5894 5897 5899 5900 5902 5905 5907 5909 5911 5913 5915 5917 5917 5918 5921 5921 5921 5922 5923 5923 5924 5925 5926 5927 5928 5929 5931 5933 5932 5931 5931 5929 5929 5929 5928 5928 5924 5921 5921 5922 5922 5922 5920 5918 5918 5916 5915 5914 5913 5913 5912 5912 5913 5914 5913
5856 5856 5856 5857 5857 5858 5858 5859 5860 5860 5861 5862 5863 5864 5866 5867 5869 5870 5871 5873 5874 5874 5873 5874 5876 5878 5880 5881 5883 5885 5887 5888 5890 5894 5895 5897 5898 5900 5903 5905 5907 5909 5912 5914 5915 5916 5918 5919 5920 5920 5921 5922 5923 5924 5925 5927 5929 5930 5931 5932 5932 5931 5931 5931 5930 5930 5929 5928 5927 5924 5922 5922 5923 5923 5924 5922 5920 5919 5918 5916 5916 5915 5914 5913 5911 5912 5912 5912
5856 5856 5856 5857 5857 5858 5858 5859 5860 5860 5861 5862 5863 5864 5865 5867 5868 5870 5871 5872 5872 5873 5873 5874 5875 5877 5879 5881 5882 5883 5886 5887 5889 5892 5894 5895 5896 5898 5901 5903 5905 5908 5911 5912 5914 5916 5917 5919 5919 5920 5921 5921 5922 5923 5925 5926 5928 5930 5931 5932 5932 5930 5930 5931 5932 5931 5930 5928 5926 5924 5922 5923 5924 5923 5923 5923 5921 5919 5919 5919 5918 5915 5915 5913 5911 5911 5911 5911
5856 5856 5856 5857 5857 5858 5858 5859 5860 5860 5861 5862 5863 5864 5865 5867 5868 5870 5871 5871 5872 5873 5874 5874 5876 5877 5878 5881 5882 5882 5885 5887 5888 5890 5892 5893 5895 5897 5899 5901 5903 5906 5909 5910 5912 5915 5917 5919 5919 5920 5920 5920 5920 5922 5923 5923 5925 5927 5929 5931 5932 5931 5930 5930 5931 5930 5930 5929 5926 5925 5923 5923 5923 5922 5922 5922 5920 5919 5919 5920 5920 5916 5914 5912 5910 5910 5911 5911
5856 5856 5857 5857 5858 5858 5859 5859 5860 5861 5861 5862 5863 5864 5866 5866 5867 5869 5871 5871 5872 5874 5875 5875 5876 5877 5879 5880 5881 5882 5885 5886 5886 5888 5890 5892 5894 5896 5898 5900 5901 5904 5907 5909 5912 5915 5917 5918 5920 5920 5920 5919 5920 5921 5921 5922 5925 5926 5928 5930 5930 5930 5930 5929 5930 5931 5930 5929 5926 5923 5923 5923 5923 5922 5922 5921 5919 5920 5919 5920 5920 5917 5914 5913 5910 5909 5909 5909
5857 5857 5857 5857 5858 5858 5859 5860 5860 5861 5862 5862 5864 5865 5866 5866 5867 5868 5869 5870 5871 5873 5874 5876 5877 5879 5880 5880 5881 5882 5884 5885 5885 5887 5890 5891 5892 5894 5897 5899 5900 5901 5905 5908 5911 5914 5915 5917 5920 5920 5919 5918 5918 5919 5919 5921 5923 5925 5927 5928 5927 5929 5930 5929 5930 5931 5931 5929 5925 5921 5921 5922 5922 5923 5923 5921 5919 5920 5921 5920 5918 5916 5914 5913 5911 5910 5909 5907
5857 5857 5857 5857 5858 5859 5859 5860 5860 5861 5862 5862 5863 5864 5865 5866 5866 5867 5868 5869 5870 5872 5873 5876 5880 5881 5881 5883 5883 5882 5883 5885 5885 5887 5889 5890 5892 5893 5896 5898 5899 5900 5903 5907 5909 5909 5910 5914 5918 5918 5918 5918 5917 5917 5919 5920 5921 5923 5925 5927 5928 5929 5929 5928 5929 5930 5931 5930 5925 5922 5923 5922 5921 5922 5921 5919 5918 5920 5921 5920 5918 5916 5914 5913 5911 5910 5909 5907
5857 5857 5858 5858 5858 5859 5859 5860 5860 5860 5861 5862 5863 5863 5864 5865 5866 5867 5867 5868 5870 5871 5873 5877 5881 5881 5881 5885 5886 5883 5883 5885 5885 5887 5890 5891 5892 5893 5895 5897 5898 5899 5901 5904 5907 5907 5908 5913 5916 5916 5916 5917 5916 5915 5918 5920 5921 5921 5922 5924 5927 5928 5929 5929 5929 5929 5929 5929 5926 5925 5925 5922 5920 5921 5921 5919 5918 5918 5918 5919 5917 5915 5914 5913 5911 5910 5909 5908
5857 5858 5858 5858 5859 5859 5859 5859 5860 5860 5861 5862 5863 5863 5863 5865 5865 5866 5867 5868 5869 5870 5872 5875 5880 5881 5881 5884 5887 5884 5882 5884 5885 5887 5890 5891 5890 5891 5893 5895 5897 5897 5898 5901 5904 5905 5907 5911 5915 5916 5915 5915 5915 5915 5916 5919 5921 5921 5922 5923 5925 5927 5928 5929 5929 5929 5929 5928 5926 5925 5923 5921 5918 5918 5919 5919 5918 5916 5915 5916 5916 5914 5913 5912 5911 5910 5909 5908
5857 5858 5858 5858 5859 5859 5859 5859 5859 5860 5861 5862 5862 5863 5864 5865 5865 5866 5867 5868 5868 5869 5871 5872 5876 5879 5881 5884 5886 5884 5882 5883 5885 5888 5891 5890 5890 5892 5892 5892 5895 5896 5896 5900 5902 5902 5905 5910 5912 5915 5915 5914 5916 5915 5915 5917 5919 5922 5924 5924 5925 5927 5929 5929 5929 5930 5929 5926 5926 5924 5921 5918 5917 5916 5918 5918 5918 5916 5914 5914 5914 5914 5913 5912 5910 5909 5909 5907
5857 5858 5858 5859 5859 5859 5859 5859 5859 5860 5861 5861 5861 5862 5864 5865 5865 5866 5867 5868 5869 5869 5871 5872 5873 5877 5880 5882 5884 5882 5881 5882 5884 5888 5891 5891 5892 5893 5892 5890 5893 5895 5894 5897 5900 5900 5903 5908 5909 5911 5914 5916 5917 5916 5914 5915 5917 5919 5922 5924 5926 5927 5929 5929 5928 5928 5927 5925 5923 5922 5919 5918 5917 5917 5918 5916 5916 5915 5914 5915 5916 5915 5914 5913 5910 5909 5908 5906
5857 5858 5858 5858 5859 5859 5859 5859 5859 5860 5860 5861 5862 5863 5864 5865 5866 5867 5867 5868 5868 5869 5871 5872 5873 5876 5879 5880 5882 5882 5881 5882 5885 5888 5891 5893 5893 5891 5889 5888 5891 5893 5893 5895 5899 5899 5902 5906 5906 5907 5910 5913 5916 5915 5914 5914 5915 5918 5921 5922 5924 5927 5928 5927 5927 5926 5927 5925 5922 5919 5919 5919 5918 5918 5918 5916 5914 5915 5915 5917 5917 5916 5914 5913 5911 5908 5907 5904
5856 5857 5857 5858 5858 5859 5859 5859 5860 5860 5859 5860 5861 5862 5863 5863 5864 5866 5867 5867 5868 5869 5870 5871 5871 5873 5875 5876 5878 5880 5880 5883 5887 5889 5891 5892 5891 5888 5887 5888 5890 5892 5893 5895 5898 5899 5901 5903 5905 5906 5908 5909 5912 5914 5915 5915 5914 5917 5920 5921 5922 5926 5927 5926 5925 5925 5925 5924 5922 5918 5918 5918 5917 5918 5919 5916 5915 5916 5917 5917 5916 5915 5914 5913 5910 5907 5906 5904
5855 5855 5856 5857 5858 5858 5859 5859 5859 5859 5860 5859 5860 5860 5862 5863 5863 5864 5866 5866 5867 5868 5868 5868 5870 5872 5873 5874 5875 5876 5877 5880 5884 5887 5888 5889 5889 5887 5886 5886 5889 5892 5892 5894 5897 5898 5899 5901 5902 5904 5907 5909 5911 5914 5917 5917 5915 5915 5917 5919 5921 5923 5924 5924 5924 5924 5923 5922 5920 5917 5916 5917 5917 5918 5918 5916 5916 5917 5917 5916 5916 5915 5914 5912 5909 5906 5905 5904
5853 5854 5855 5856 5857 5858 5858 5858 5858 5859 5859 5858 5858 5860 5862 5862 5862 5863 5865 5865 5866 5867 5866 5867 5869 5871 5872 5872 5872 5874 5877 5878 5880 5883 5885 5888 5890 5888 5884 5883 5886 5888 5889 5892 5893 5893 5895 5898 5899 5901 5904 5907 5910 5912 5915 5916 5915 5915 5916 5916 5917 5919 5921 5922 5922 5923 5923 5920 5917 5915 5915 5916 5918 5919 5917 5915 5917 5917 5917 5917 5916 5914 5913 5911 5908 5905 5904 5904
5852 5853 5854 5855 5856 5857 5857 5857 5858 5858 5858 5858 5858 5859 5860 5860 5860 5861 5864 5865 5865 5865 5866 5866 5867 5868 5868 5869 5869 5871 5874 5875 5876 5879 5883 5886 5888 5885 5881 5882 5884 5885 5886 5889 5890 5890 5893 5895 5897 5899 5901 5904 5907 5910 5913 5915 5914 5914 5916 5917 5916 5917 5919 5921 5922 5924 5923 5919 5915 5913 5912 5912 5915 5917 5916 5915 5917 5918 5917 5917 5916 5914 5912 5910 5907 5906 5905 5905
5851 5852 5853 5854 5855 5855 5856 5857 5857 5857 5857 5857 5858 5858 5859 5859 5858 5858 5861 5863 5863 5863 5865 5866 5866 5866 5866 5868 5869 5870 5871 5871 5873 5875 5878 5880 5881 5881 5881 5882 5883 5884 5886 5888 5888 5889 5892 5894 5896 5898 5901 5902 5905 5908 5911 5913 5913 5914 5915 5916 5916 5917 5918 5919 5922 5923 5922 5919 5915 5912 5911 5910 5910 5913 5914 5914 5916 5917 5916 5915 5914 5912 5910 5909 5908 5907 5907 5906
5849 5850 5851 5852 5853 5854 5855 5856 5858 5857 5857 5857 5858 5858 5858 5857 5857 5857 5859 5861 5862 5862 5863 5865 5866 5866 5865 5868 5870 5870 5870 5871 5872 5872 5873 5875 5876 5879 5881 5883 5884 5884 5885 5887 5888 5888 5890 5892 5894 5897 5899 5901 5902 5905 5907 5909 5910 5911 5911 5912 5914 5916 5917 5919 5920 5921 5921 5919 5914 5910 5910 5909 5908 5910 5913 5915 5915 5915 5915 5915 5913 5911 5909 5908 5907 5907 5908 5907
5848 5848 5850 5850 5851 5852 5853 5855 5856 5856 5856 5857 5857 5857 5857 5856 5857 5858 5859 5860 5861 5862 5863 5863 5865 5865 5864 5865 5867 5868 5869 5870 5871 5872 5873 5874 5875 5876 5878 5882 5885 5885 5884 5885 5887 5887 5889 5891 5893 5895 5897 5899 5901 5903 5904 5905 5906 5908 5910 5911 5913 5914 5915 5916 5916 5917 5919 5918 5914 5910 5909 5907 5905 5909 5913 5914 5914 5913 5913 5913 5912 5910 5908 5906 5906 5907 5907 5906
5846 5847 5847 5848 5849 5851 5852 5853 5854 5855 5855 5855 5855 5855 5855 5855 5856 5857 5858 5859 5859 5861 5862 5862 5864 5864 5864 5864 5865 5865 5867 5869 5871 5872 5873 5873 5875 5875 5876 5879 5882 5884 5884 5884 5885 5886 5888 5889 5891 5893 5895 5899 5901 5902 5903 5905 5906 5906 5908 5911 5912 5912 5913 5914 5914 5916 5918 5917 5914 5912 5908 5903 5903 5909 5913 5913 5912 5911 5911 5911 5910 5908 5907 5906 5906 5906 5906 5905
5843 5844 5845 5846 5848 5849 5849 5850 5851 5852 5853 5853 5853 5854 5854 5855 5856 5856 5856 5857 5857 5858 5860 5862 5862 5862 5864 5865 5865 5865 5867 5869 5870 5872 5872 5873 5874 5875 5876 5877 5879 5881 5883 5884 5885 5886 5887 5888 5890 5892 5894 5896 5898 5900 5903 5906 5907 5907 5906 5906 5907 5908 5910 5913 5912 5913 5915 5913 5911 5909 5904 5900 5902 5908 5911 5911 5910 5910 5909 5909 5908 5906 5906 5906 5906 5905 5905 5905